Location: Casaglia
(44.0333°N, 11.5167°E)
Time: 07:48:34
(UTC+00:00)

X-37B - Pass Details

Date: 02 August 2021
Orbit: 381 x 393 km, 45.0° (Epoch: 29 August)

Event Time Altitude Azimuth Distance (km) Brightness Sun altitude
Exits shadow 02:35:52 22° 187° (S) 894 2.0 -13.8°
Maximum altitude 02:36:57 27° 151° (SSE) 762 1.9 -13.7°
Drops below altitude 10° 02:39:42 10° 91° (E) 1,397 4.1 -13.3°
Sets 02:41:56 0° 79° (E) 2,253 5.6 -13.0°
